Location: Dumpton Point
(51.3500°N, 1.4433°E)
Time: 12:49:34
(UTC+00:00)

Envisat - Pass Details

Date: 15 December 2021
Orbit: 764 x 766 km, 98.2° (Epoch: 23 January)

Event Time Altitude Azimuth Distance (km) Brightness Sun altitude
Rises 05:20:09 0° 13° (NNE) 3,247 6.3 -22.4°
Reaches altitude 10° 05:22:29 10° 11° (NNE) 2,316 5.5 -22.1°
Maximum altitude 05:27:34 74° 288° (WNW) 802 2.8 -21.3°
Drops below altitude 10° 05:32:37 10° 204° (SSW) 2,298 5.3 -20.5°
Sets 05:34:55 0° 203° (SSW) 3,219 6.1 -20.2°
